Simultaneous Nadir Overpasses (SNOs) Predictions

Prediction of SNOs over PacNW region [( 10.00, 139.50) to ( 22.70, 165.60)] between AQUA and NPP Satellites:

Table of predicted SNOs over PacNW region for the next 30.0 days since TLE Epoch: 2/2/2017
Index Date (AQUA) Time (AQUA) AQUA Lat,Lon Date (NPP) Time (NPP) NPP Lat,Lon Distance(km) Time Diff (sec)
1 02/04/2017 03:31:38 22.68, 147.52 02/04/2017 03:28:08 24.70, 145.19 326.47 210
2 02/09/2017 15:59:15 22.61, 147.50 02/09/2017 16:01:58 23.26, 144.52 313.99 163
3 02/17/2017 15:09:50 22.63, 159.87 02/17/2017 15:11:09 23.24, 157.21 280.70 79
4 02/20/2017 03:31:40 22.67, 147.54 02/20/2017 03:28:11 25.49, 145.02 404.77 209
5 02/25/2017 15:59:16 22.63, 147.53 02/25/2017 16:01:47 23.31, 144.56 312.89 151
